Regional Weather Roundup
Issued by NWS

Home | Current Version | Previous Version | Text Only | Print | Product List | Glossary On
Versions: 1 2 3 4 5 6 7 8 9 10 11 12 13 14 15 16 17 18 19 20 21 22 23 24 25 26 27 28
000
ASUS45 KTFX 312110
RWRMT
MONTANA REGIONAL WEATHER ROUNDUP
NATIONAL WEATHER SERVICE GREAT FALLS MT
300 PM MDT TUE MAY 31 2016

NOTE: "FAIR" INDICATES FEW OR NO CLOUDS BELOW 12000 FEET WITH NO
SIGNIFICANT WEATHER AND/OR OBSTRUCTIONS TO VISIBILITY.

MTZ001>007-043-312200-
WEST OF THE DIVIDE

CITY           SKY/WX    TMP DP  RH WIND       PRES   REMARKS
KALISPELL      MOSUNNY   68  32  26 S8        30.13F
MISSOULA       SUNNY     69  31  24 VRB3      30.14F
BUTTE          PTSUNNY   58  27  30 E7        30.20F
MULLAN PASS    SUNNY     57  25  29 VRB5      30.20F
ANACONDA         N/A     59  30  33 NE8       30.18F
DEER LODGE       N/A     61  30  31 N8        30.20F
EUREKA           N/A     70  34  26 CALM      30.13F
HAMILTON         N/A     68  28  22 NE6       30.12F
LIBBY            N/A     70  34  26 NE5       30.12F
$$

MTZ008-052>055-312200-
SOUTHWEST MONTANA

CITY           SKY/WX    TMP DP  RH WIND       PRES   REMARKS
BOZEMAN        MOSUNNY   59  34  39 VRB7      30.20F
DILLON         PTSUNNY   60  29  30 MISG      30.17F
W YELLOWSTONE  SUNNY     55  21  26 N5        30.19F
ENNIS          SUNNY     59  32  36 N12G20    30.25S
$$

MTZ009-010-012-014-046-048-049-054-312200-
EAST SLOPES AND CENTRAL MONTANA

CITY           SKY/WX    TMP DP  RH WIND       PRES   REMARKS
CUT BANK       MOSUNNY   60  33  36 N13       30.19F
GREAT FALLS    MOSUNNY   60  35  39 W8        30.19F
MALMSTROM AFB  PTSUNNY   59  36  41 NW12      30.19F
HELENA         SUNNY     64  34  32 VRB3      30.20F
CHOTEAU          N/A     61  36  39 N8        30.21F
$$

MTZ011-013-016-021-045-047-050-051-312200-
NORTH CENTRAL MONTANA

CITY           SKY/WX    TMP DP  RH WIND       PRES   REMARKS
HAVRE          CLOUDY    60  46  59 NW15G22   30.14F
LEWISTOWN      CLOUDY    53  43  68 NW12G17   30.19F
N BAR RANCH    CLOUDY    50  41  71 NW20G28   30.19S
CHINOOK          N/A     61  48  63 W15G22    30.12S
$$

MTZ017>020-022>027-061-062-312200-
NORTHEAST MONTANA

CITY           SKY/WX    TMP DP  RH WIND       PRES   REMARKS
GLASGOW        CLOUDY    62  43  49 NW23G33   29.99F
SIDNEY         CLOUDY    55  50  82 NW21      29.90R
WOLF POINT     PTSUNNY   63  48  58 N21G30    29.96S
PLENTYWOOD       N/A     54  52  94 N21       29.90R
POPLAR           N/A     61  48  63 NW23G31   29.93S
$$

MTZ028>42-056>058-312200-
SOUTHCENTRAL AND SOUTHEAST MONTANA

CITY           SKY/WX    TMP DP  RH WIND       PRES   REMARKS
BAKER          LGT RAIN  49  32  52 NW20G33   29.96R
BILLINGS       PTSUNNY   62  38  40 NE13      30.15F
LIVINGSTON     SUNNY     62  33  33 NW14G21   30.17F
MILES CITY     LGT RAIN  57  49  74 NW30G38   30.04R
FORSYTH          N/A     57  46  67 W13G20    30.06S
$$

REGIONAL REPORTS...DAKOTAS

CITY           SKY/WX    TMP DP  RH WIND       PRES   REMARKS
WILLISTON      LGT RAIN  54  50  86 N20G31    29.86R
MINOT          PTSUNNY   67  47  48 VRB5      29.63R
DICKINSON      LGT RAIN  50  46  86 NW30G44   29.78R
BEACH          LGT RAIN  52  52 100 NW25G36   29.94R
CROSBY         HVY RAIN  50  50 100 N23G29    29.87R
WATFORD CITY   LGT RAIN  50  50 100 N29G38    29.83R
BISMARCK       LGT RAIN  53  50  89 W5        29.64F
GRAND FORKS    PTSUNNY   65  47  52 S16       29.68S
FARGO          CLOUDY    68  45  43 SW20      29.72F
BUFFALO SD       N/A     54  47  77 NW29G45   29.88R
RAPID CITY     PTSUNNY   61  39  44 NW25G33   29.99R
$$

REGIONAL REPORTS...WYOMING/IDAHO/WASHINGTON

CITY           SKY/WX    TMP DP  RH WIND       PRES   REMARKS
GILLETTE       CLOUDY    56  40  55 NW26G39   30.10R
SHERIDAN       CLOUDY    62  42  47 N22G31    30.14S
BUFFALO WY     CLOUDY    54  37  52 N32G43    30.13S
CODY           SUNNY     61  36  39 NE15      30.13F
YELLOWSTONE LA   N/A     51  24  34 VRB6      30.25S
IDAHO FALLS    SUNNY     67  29  24 VRB5      30.13F
SALMON         SUNNY     68  27  21 CALM      30.07F
BOISE          SUNNY     76  21  12 VRB3      30.06F
SPOKANE        MOSUNNY   75  32  20 NW7       30.11F
$$

REGIONAL REPORTS...ALBERTA

CITY           SKY/WX    TMP DP  RH WIND       PRES   REMARKS
EDMONTON       MOSUNNY   63  41  45 CALM      30.12F
CALGARY        MOSUNNY   61  34  36 VRB3      30.15F
LETHBRIDGE     MOSUNNY   63  36  36 W12G17    30.17F
MEDICINE HAT   LGT RAIN  55  48  76 W13       30.14F
WATERTON GATE    N/A     59  34  38 NE6         N/A
MILK RIVER       N/A     57  39  51 N10         N/A
ONEFOUR          N/A     54  45  71 NW17        N/A
$$

REGIONAL REPORTS...SASKATCHEWAN

CITY           SKY/WX    TMP DP  RH WIND       PRES   REMARKS
SWIFT CURRENT  CLOUDY    59  46  63 N17G23    30.04S
REGINA         CLOUDY    55  48  76 N12G21    29.95R
SASKATOON      PTSUNNY   63  46  55 NE15G22   30.05S
CYPRESS HILLS    N/A     48  46  93 NW7         N/A
VAL MARIE        N/A     54  48  82 N15         N/A
ROCKGLEN         N/A     55  48  76 N24G37      N/A
ASSINIBOIA       N/A     59  43  55 N6          N/A
$$




USA.gov is the U.S. government's official web portal to all federal, state and local government web resources and services.